Terug naar catalogus

BREEZE-M DEB

TANK

ActiefHEO
NORAD 38979·DEBRIS·🇷🇺 Russia

Gelanceerd Nov 2, 2012 vanaf Baikonur Cosmodrome

Loading…

Volgende Passages (komende 24 uur)

TLE

VersSource: Space-Track

Epoch: Sep 11, 2026, 04:16 UTC

1 38979U 12061C   26254.17792379  .00000134  00000-0  47605-3 0  9993
2 38979  46.9003 153.3005 7100500 119.5070 327.9140  2.27849688113750

Volg BREEZE-M DEB in realtime met AllMySat

Download on the App Store